Location: Unspecified
(49.0650°N, 0.0000°E)
Time: 03:28:58
(UTC+00:00)

UNISAT 6 - Visible Passes

Search period start: 04 April 2026 00:00
Search period end: 14 April 2026 00:00
Orbit: 574 x 636 km, 97.8° (Epoch: 28 March)

Date Brightness Start Highest point End Pass type
(mag) Time Alt. Az. Time Alt. Az. Time Alt. Az.
4 Apr ? 02:31:50 31° ESE 02:33:15 42° ENE 02:37:20 10° N visible
4 Apr ? 04:08:40 22° WSW 04:09:16 22° W 04:12:40 10° NW visible
5 Apr ? 02:44:18 36° SE 02:45:45 56° ENE 02:50:01 10° N visible
5 Apr ? 04:21:08 16° WSW 04:21:57 17° W 04:24:49 10° NW visible
6 Apr ? 01:22:11 10° ENE 01:23:16 11° NE 01:24:22 10° NE visible
6 Apr ? 02:56:46 39° SSE 02:58:17 75° ENE 03:02:37 10° N visible
6 Apr ? 04:33:35 12° WSW 04:34:39 13° W 04:36:41 10° WNW visible
7 Apr ? 01:33:26 10° E 01:35:38 14° ENE 01:37:51 10° NNE visible
7 Apr ? 03:09:11 38° S 03:10:48 83° WSW 03:15:11 10° NNW visible
8 Apr ? 01:45:10 10° ESE 01:48:00 18° ENE 01:50:54 10° NNE visible
8 Apr ? 03:21:38 34° S 03:23:21 62° WSW 03:27:42 10° NNW visible
9 Apr ? 01:57:14 11° ESE 02:00:24 22° ENE 02:03:47 10° NNE visible
9 Apr ? 03:34:04 28° SSW 03:35:56 46° W 03:40:09 10° NNW visible
10 Apr ? 02:09:40 13° ESE 02:12:49 28° ENE 02:16:33 10° N visible
10 Apr ? 03:46:30 23° SW 03:48:31 35° W 03:52:32 10° NNW visible
11 Apr ? 02:22:05 15° SE 02:25:14 36° ENE 02:29:15 10° N visible
11 Apr ? 03:58:55 18° SW 04:01:07 27° W 04:04:51 10° NW visible
12 Apr ? 02:34:31 16° SE 02:37:40 47° ENE 02:41:53 10° N visible
12 Apr ? 04:11:21 14° SW 04:13:44 21° W 04:17:03 10° NW visible
13 Apr ? 02:46:56 17° SSE 02:50:08 62° ENE 02:54:29 10° N visible
13 Apr ? 04:23:45 10° SW 04:26:22 16° W 04:29:05 10° NW visible
